{"data":{"norad_id":45444,"epoch":"2026-09-20T01:55:19.316352Z","epoch_age_seconds":50720,"freshness":"FRESH","line1":"1 45444U 20020W   26263.08008468 -.00000425  00000+0 -12347-2 0  9999","line2":"2 45444  87.8974   2.2085 0002062  98.3479 261.7882 13.11417723315118","mean_motion":13.11417723,"eccentricity":0.0002062,"inclination_deg":87.8974,"raan_deg":2.2085,"arg_perigee_deg":98.3479,"mean_anomaly_deg":261.7882,"bstar":-0.0012347,"rev_number":31511,"period_min":109.80482989858,"perigee_km":1216.1134368189,"apogee_km":1219.2459516235,"semimajor_km":7595.8166942212,"source":"CELESTRAK","updated_at":"2026-09-20T09:00:44.556505Z"}}